TimeEDT,TemperatureF,Dew PointF,Humidity,Sea Level PressureIn,VisibilityMPH,Wind Direction,Wind SpeedMPH,Gust SpeedMPH,PrecipitationIn,Events,Conditions,WindDirDegrees,DateUTC
12:14 AM,-9999,-9999,N/A,29.85,1.8,North,4.6,-,N/A,,Overcast,350,2013-06-07 04:14:00
12:33 AM,54.1,54.3,100,29.85,1.5,North,3.5,-,N/A,,Overcast,350,2013-06-07 04:33:00
12:53 AM,54.0,54.1,100,29.85,5.0,North,3.5,-,N/A,,Overcast,360,2013-06-07 04:53:00
1:14 AM,54.1,54.3,100,29.85,2.5,NNW,3.5,-,N/A,,Overcast,330,2013-06-07 05:14:00
1:34 AM,54.0,54.1,100,29.85,1.0,NW,3.5,-,N/A,,Overcast,310,2013-06-07 05:34:00
1:53 AM,-9999,-9999,N/A,29.85,1.2,NW,3.5,-,N/A,,Overcast,310,2013-06-07 05:53:00
2:14 AM,53.8,54.0,100,29.85,2.5,NNW,4.6,-,N/A,,Overcast,330,2013-06-07 06:14:00
2:34 AM,54.0,54.1,100,29.85,2.5,NW,3.5,-,N/A,,Overcast,310,2013-06-07 06:34:00
2:53 AM,53.8,54.0,100,29.85,2.5,NW,3.5,-,N/A,,Overcast,320,2013-06-07 06:53:00
3:14 AM,54.0,54.1,100,29.85,3.0,Calm,Calm,-,N/A,,Overcast,0,2013-06-07 07:14:00
3:33 AM,54.0,54.1,100,29.84,3.0,Calm,Calm,-,N/A,,Overcast,0,2013-06-07 07:33:00
3:54 AM,54.0,54.1,100,29.84,4.0,Calm,Calm,-,N/A,,Overcast,0,2013-06-07 07:54:00
4:14 AM,-9999,-9999,N/A,29.84,2.5,Calm,Calm,-,N/A,,Overcast,0,2013-06-07 08:14:00
4:34 AM,-9999,-9999,N/A,29.84,2.0,Calm,Calm,-,N/A,,Overcast,0,2013-06-07 08:34:00
4:53 AM,54.1,54.3,100,29.85,3.0,Calm,Calm,-,N/A,,Overcast,0,2013-06-07 08:53:00
5:14 AM,-9999,-9999,N/A,29.85,2.5,Calm,Calm,-,N/A,,Overcast,0,2013-06-07 09:14:00
5:34 AM,54.5,54.5,100,29.84,2.5,Calm,Calm,-,N/A,,Overcast,0,2013-06-07 09:34:00
5:53 AM,-9999,-9999,N/A,29.84,2.5,NW,3.5,-,N/A,,Overcast,320,2013-06-07 09:53:00
6:14 AM,-9999,-9999,N/A,29.84,7.0,Calm,Calm,-,N/A,,Overcast,0,2013-06-07 10:14:00
6:34 AM,54.5,54.5,100,29.85,4.0,Calm,Calm,-,N/A,,Overcast,0,2013-06-07 10:34:00
6:53 AM,54.5,54.7,100,29.85,4.0,WNW,5.8,-,N/A,,Overcast,300,2013-06-07 10:53:00
7:14 AM,54.7,54.9,100,29.85,2.0,NW,3.5,-,N/A,,Overcast,320,2013-06-07 11:14:00
7:33 AM,54.7,54.9,100,29.85,2.0,Calm,Calm,-,N/A,,Overcast,0,2013-06-07 11:33:00
7:54 AM,54.9,55.0,100,29.86,2.5,NNW,3.5,-,N/A,,Overcast,330,2013-06-07 11:54:00
8:14 AM,55.4,55.4,100,29.86,2.5,NNW,3.5,-,N/A,,Overcast,330,2013-06-07 12:14:00
8:34 AM,55.4,55.4,100,29.86,2.5,North,3.5,-,N/A,,Overcast,360,2013-06-07 12:34:00
8:53 AM,55.2,55.2,100,29.86,2.5,North,3.5,-,N/A,,Overcast,360,2013-06-07 12:53:00
9:14 AM,55.4,55.6,100,29.87,4.0,North,3.5,-,N/A,,Overcast,360,2013-06-07 13:14:00
9:34 AM,55.6,55.8,100,29.87,4.0,North,4.6,-,N/A,,Overcast,10,2013-06-07 13:34:00
9:53 AM,55.8,55.9,100,29.87,4.0,NNW,4.6,-,N/A,,Overcast,340,2013-06-07 13:53:00
10:14 AM,56.3,56.3,100,29.86,5.0,NNW,4.6,-,N/A,,Overcast,340,2013-06-07 14:14:00
10:33 AM,56.3,56.5,100,29.86,4.0,NNW,4.6,-,N/A,,Overcast,330,2013-06-07 14:33:00
10:54 AM,56.8,57.0,100,29.86,4.0,North,4.6,-,N/A,,Overcast,350,2013-06-07 14:54:00
11:14 AM,57.2,57.4,100,29.86,5.0,NNW,5.8,-,N/A,,Overcast,330,2013-06-07 15:14:00
11:33 AM,58.1,58.1,100,29.86,7.0,North,6.9,-,N/A,,Overcast,350,2013-06-07 15:33:00
11:54 AM,58.8,59.0,100,29.86,10.0,WNW,6.9,-,N/A,,Overcast,300,2013-06-07 15:54:00
12:14 PM,58.3,58.3,100,29.86,10.0,NW,5.8,-,N/A,,Overcast,320,2013-06-07 16:14:00
12:33 PM,58.3,58.5,100,29.86,10.0,NW,5.8,-,N/A,,Overcast,320,2013-06-07 16:33:00
12:54 PM,59.2,59.4,100,29.85,10.0,NNW,5.8,-,N/A,,Overcast,330,2013-06-07 16:54:00
1:14 PM,59.0,59.2,100,29.85,10.0,NNW,5.8,-,N/A,,Overcast,340,2013-06-07 17:14:00
1:33 PM,-9999,-9999,N/A,29.85,10.0,NNW,6.9,-,N/A,,Overcast,340,2013-06-07 17:33:00
1:54 PM,59.2,59.4,100,29.84,10.0,NNW,4.6,-,N/A,,Overcast,340,2013-06-07 17:54:00
2:14 PM,60.3,60.4,100,29.84,10.0,NW,6.9,-,N/A,,Overcast,320,2013-06-07 18:14:00
2:33 PM,60.6,60.6,100,29.84,10.0,NW,5.8,-,N/A,,Overcast,320,2013-06-07 18:33:00
2:54 PM,61.0,60.6,99,29.84,10.0,NNW,5.8,-,N/A,,Overcast,330,2013-06-07 18:54:00
3:14 PM,60.8,60.6,99,29.84,10.0,NW,6.9,-,N/A,,Overcast,310,2013-06-07 19:14:00
3:33 PM,60.6,60.6,100,29.85,10.0,North,5.8,-,N/A,,Overcast,350,2013-06-07 19:33:00
3:54 PM,60.6,60.1,98,29.84,10.0,NNW,5.8,-,N/A,,Overcast,330,2013-06-07 19:54:00
4:14 PM,60.1,59.0,96,29.85,10.0,North,4.6,-,N/A,,Overcast,360,2013-06-07 20:14:00
4:33 PM,59.4,59.2,99,29.84,10.0,NNW,4.6,-,N/A,,Overcast,340,2013-06-07 20:33:00
4:54 PM,59.2,59.0,99,29.84,10.0,NNW,8.1,-,N/A,,Overcast,340,2013-06-07 20:54:00
5:14 PM,59.0,58.5,98,29.84,10.0,NNW,5.8,-,N/A,,Overcast,330,2013-06-07 21:14:00
5:33 PM,58.8,58.1,97,29.84,10.0,NNW,5.8,-,N/A,,Overcast,340,2013-06-07 21:33:00
5:54 PM,58.6,58.1,98,29.84,10.0,NNW,5.8,-,N/A,,Overcast,330,2013-06-07 21:54:00
6:14 PM,58.5,57.0,95,29.84,10.0,NNW,9.2,-,N/A,,Overcast,340,2013-06-07 22:14:00
6:33 PM,58.6,57.0,94,29.84,10.0,NNW,6.9,-,N/A,,Overcast,340,2013-06-07 22:33:00
6:54 PM,58.1,56.7,95,29.84,10.0,NNW,6.9,-,N/A,,Overcast,340,2013-06-07 22:54:00
7:14 PM,57.6,56.5,96,29.85,10.0,North,6.9,-,N/A,,Overcast,360,2013-06-07 23:14:00
7:33 PM,57.2,56.5,97,29.85,10.0,NNW,4.6,-,N/A,,Overcast,340,2013-06-07 23:33:00
7:54 PM,56.8,56.3,98,29.86,10.0,North,3.5,-,N/A,,Overcast,360,2013-06-07 23:54:00
8:14 PM,56.5,56.7,100,29.86,10.0,North,4.6,-,N/A,,Overcast,360,2013-06-08 00:14:00
8:34 PM,56.3,56.3,100,29.87,10.0,NNW,5.8,-,N/A,,Overcast,340,2013-06-08 00:34:00
8:54 PM,56.3,56.3,100,29.88,10.0,North,3.5,-,N/A,,Overcast,350,2013-06-08 00:54:00
9:14 PM,-9999,-9999,N/A,29.88,10.0,NNW,3.5,-,N/A,,Overcast,340,2013-06-08 01:14:00
9:33 PM,-9999,-9999,N/A,29.88,10.0,NW,3.5,-,N/A,,Overcast,320,2013-06-08 01:33:00
9:54 PM,55.8,55.9,100,29.88,10.0,NNW,3.5,-,N/A,,Overcast,340,2013-06-08 01:54:00
10:14 PM,55.8,55.9,100,29.89,7.0,NW,3.5,-,N/A,,Overcast,320,2013-06-08 02:14:00
10:33 PM,55.8,55.9,100,29.90,7.0,NW,3.5,-,N/A,,Overcast,320,2013-06-08 02:33:00
10:54 PM,55.4,55.6,100,29.90,7.0,NNW,3.5,-,N/A,,Overcast,330,2013-06-08 02:54:00
11:14 PM,55.6,55.8,100,29.90,5.0,NW,3.5,-,N/A,,Overcast,320,2013-06-08 03:14:00
11:33 PM,55.4,55.6,100,29.90,5.0,Calm,Calm,-,N/A,,Overcast,0,2013-06-08 03:33:00
11:54 PM,55.4,55.6,100,29.90,5.0,NW,3.5,-,N/A,,Overcast,320,2013-06-08 03:54:00